404 - Page Not Found

404

Error - Page Not Found


Please check the URL.

Otherwise, click here to be redirected to the homepage.

  • Currently

    Reported at Minneapolis, Minneapolis-St. Paul International Airport, MN
    1:53 PM CST FRI FEB 23 2018
  • 32°F0°C
  • Partly Cloudy
    Partly Cloudy
  • Feels Like:25°F-4°CDew Point:21°F-6°CHumidity:64% Winds:SSW 9 mph 14 kph
    Pressure:30.18 in1022 hPaVisibility:10.00 miles16090.00 meters
Time Weather Temp Dew Point
Humidity Winds Visibility Pressure Precipitation
1 hr 24 hr
Sunday, February 18
00:53 00:53 Mostly Clear Mostly Clear 27°F-3°C 23°F-5°C 85% N 20 mphN 31 kph 10.0 miles16.1 km 29.77 in1008 hPa 0.00 in0.00 mm --
23:53 23:53 Mostly Clear Mostly Clear 30°F-1°C 26°F-3°C 85% NNW 10 mphNNW 17 kph 10.0 miles16.1 km 29.74 in1007 hPa 0.00 in0.00 mm --
22:53 22:53 Partly Cloudy Partly Cloudy 34°F1°C 30°F-1°C 85% CalmCalm 10.0 miles16.1 km 29.71 in1006 hPa 0.00 in0.00 mm --
21:53 21:53 Mostly Cloudy Mostly Cloudy 34°F1°C 30°F-1°C 85% SE 6 mphSE 9 kph 10.0 miles16.1 km 29.68 in1005 hPa 0.00 in0.00 mm --
20:53 20:53 Mostly Cloudy Mostly Cloudy 37°F3°C 31°F-1°C 79% SSE 5 mphSSE 7 kph 10.0 miles16.1 km 29.68 in1005 hPa 0.00 in0.00 mm --
19:53 19:53 Cloudy Cloudy 38°F3°C 31°F-1°C 76% SSE 6 mphSSE 9 kph 10.0 miles16.1 km 29.65 in1004 hPa 0.00 in0.00 mm --
18:53 18:53 Cloudy Cloudy 41°F5°C 30°F-1°C 65% S 7 mphS 11 kph 10.0 miles16.1 km 29.62 in1003 hPa 0.00 in0.00 mm --
17:53 17:53 Cloudy Cloudy 44°F7°C 30°F-1°C 58% S 10 mphS 17 kph 10.0 miles16.1 km 29.62 in1003 hPa 0.00 in0.00 mm --
16:53 16:53 Cloudy Cloudy 45°F7°C 30°F-1°C 56% SSW 15 mphSSW 24 kph 10.0 miles16.1 km 29.62 in1003 hPa 0.00 in0.00 mm --
15:53 15:53 Cloudy Cloudy 45°F7°C 31°F-1°C 58% SSW 17 mphSSW 28 kph 10.0 miles16.1 km 29.62 in1003 hPa 0.00 in0.00 mm --
14:53 14:53 Cloudy Cloudy 43°F6°C 30°F-1°C 60% S 13 mphS 20 kph 10.0 miles16.1 km 29.62 in1003 hPa 0.00 in0.00 mm --
13:53 13:53 Cloudy Cloudy 39°F4°C 29°F-2°C 67% S 16 mphS 26 kph 10.0 miles16.1 km 29.65 in1004 hPa 0.00 in0.00 mm --
12:53 12:53 Cloudy Cloudy 35°F2°C 27°F-3°C 72% SSE 22 mphSSE 35 kph 10.0 miles16.1 km 29.68 in1005 hPa 0.00 in0.00 mm --
12:45 12:45 Cloudy Cloudy 35°F2°C 26°F-3°C 70% SSE 21 mphSSE 33 kph 10.0 miles16.1 km 29.68 in1005 hPa 0.00 in0.00 mm --
11:53 11:53 Cloudy Cloudy 31°F-1°C 24°F-4°C 76% SSE 22 mphSSE 35 kph 10.0 miles16.1 km 29.74 in1007 hPa 0.00 in0.00 mm --
11:45 11:45 Cloudy Cloudy 31°F-1°C 24°F-4°C 76% SSE 25 mphSSE 41 kph 10.0 miles16.1 km 29.74 in1007 hPa 0.00 in0.00 mm --
10:53 10:53 Cloudy Cloudy 26°F-3°C 19°F-7°C 75% SSE 18 mphSSE 30 kph 10.0 miles16.1 km 29.8 in1009 hPa 0.00 in0.00 mm --
09:53 09:53 Cloudy Cloudy 24°F-4°C 14°F-10°C 65% SE 22 mphSE 35 kph 10.0 miles16.1 km 29.85 in1011 hPa 0.00 in0.00 mm --
08:53 08:53 Cloudy Cloudy 23°F-5°C 9°F-13°C 55% SE 15 mphSE 24 kph 10.0 miles16.1 km 29.91 in1013 hPa 0.00 in0.00 mm --
07:53 07:53 Cloudy Cloudy 22°F-6°C 9°F-13°C 57% SE 9 mphSE 15 kph 10.0 miles16.1 km 29.94 in1014 hPa 0.00 in0.00 mm --
06:53 06:53 Cloudy Cloudy 21°F-6°C 10°F-12°C 62% ESE 15 mphESE 24 kph 10.0 miles16.1 km 29.97 in1015 hPa 0.00 in0.00 mm --
05:53 05:53 Cloudy Cloudy 21°F-6°C 11°F-12°C 65% E 8 mphE 13 kph 10.0 miles16.1 km 30.03 in1017 hPa 0.00 in0.00 mm --
04:53 04:53 Cloudy Cloudy 20°F-7°C 10°F-12°C 65% ESE 3 mphESE 6 kph 10.0 miles16.1 km 30.06 in1018 hPa 0.00 in0.00 mm --
03:53 03:53 Cloudy Cloudy 20°F-7°C 10°F-12°C 65% E 5 mphE 7 kph 10.0 miles16.1 km 30.09 in1019 hPa 0.00 in0.00 mm --
02:53 02:53 Cloudy Cloudy 21°F-6°C 9°F-13°C 59% SSW 3 mphSSW 6 kph 10.0 miles16.1 km 30.09 in1019 hPa 0.00 in0.00 mm --
01:53 01:53 Partly Cloudy Partly Cloudy 19°F-7°C 9°F-13°C 65% CalmCalm 10.0 miles16.1 km 30.06 in1018 hPa 0.00 in0.00 mm --
404 - Page Not Found

404

Error - Page Not Found


Please check the URL.

Otherwise, click here to be redirected to the homepage.